Flag for Brazil Weather past 2 weeks in Rio Branco, Acre, Brazil

Now
73 °F

Passing clouds.


Feels Like: 72 °F
Forecast: 72 / 87 °F
Wind: No wind

Location: Rio Branco Airport


UV Index: 7 (High)

Visibility: N/A


Pressure: 29.83 "Hg

Humidity: 89%

Dew point: 70 °F

Location of Rio BrancoLocation

Historic Weather in Rio Branco

°F

Rio Branco temperature yesterday

Maximum temperature yesterday: 88 °F (at 12:00 PM)
Minimum temperature yesterday: 68 °F (at 3:00 AM)
Average temperature yesterday: 78 °F

Past Weeks' High & Low Weather Summary

 TemperatureHumidityPressure
High93 °F (Apr 6, 2:00 PM)100% (Apr 4, 3:00 AM)30.01 "Hg (Apr 4, 3:00 AM)
Low37 °F (Apr 4, 6:00 AM)47% (Apr 6, 2:00 PM)29.74 "Hg (Apr 3, 4:00 PM)
Average77 °F82%29.89 "Hg
* Reported Apr 3 5:00 AM — Apr 18 5:00 AM, Rio Branco, Weather by CustomWeather, © 2014

Note: Actual official high and low records may vary slightly from our data, if they occured in-between our weather recording intervals... More about our weather records

Advertising

Historic Weather Conditions — Data for Previous 24 hours

 ConditionsComfort  
Time TempWeatherWind HumidityBarometerVisibility
5:00 AM
Apr 18
72 °FPassing clouds.No wind94%29.83 "HgN/A
4:00 AM73 °FClear.No wind89%29.83 "Hg10 mi
3:00 AM72 °FPassing clouds.No wind94%29.83 "HgN/A
2:00 AM72 °FPassing clouds.No wind94%29.83 "HgN/A
1:00 AM72 °FClear.5 mph94%29.86 "Hg10 mi
12:00 AM73 °FClear.1 mph89%29.86 "Hg10 mi
11:00 PM
Apr 17
73 °FClear.1 mph94%29.89 "Hg10 mi
10:00 PM75 °FClear.1 mph89%29.86 "Hg10 mi
9:00 PM75 °FClear.No wind89%29.86 "Hg10 mi
8:00 PM75 °FPassing clouds.1 mph94%29.83 "HgN/A
7:00 PM77 °FPassing clouds.No wind89%29.80 "HgN/A
6:00 PM79 °FScattered clouds.No wind84%29.80 "HgN/A
5:00 PM86 °FScattered clouds.2 mph62%29.80 "HgN/A
4:00 PM86 °FScattered clouds.5 mph59%29.80 "HgN/A
3:00 PM88 °FScattered clouds.2 mph52%29.80 "HgN/A
2:00 PM88 °FScattered clouds.6 mph52%29.83 "HgN/A
1:00 PM86 °FPartly sunny.3 mph59%29.86 "HgN/A
12:00 PM88 °FPartly sunny.1 mph55%29.89 "HgN/A
11:00 AM84 °FPartly sunny.3 mph62%29.92 "HgN/A
10:00 AM86 °FScattered clouds.3 mph62%29.95 "HgN/A
9:00 AM82 °FScattered clouds.3 mph66%29.95 "HgN/A
8:00 AM79 °FSunny.2 mph74%29.95 "Hg10 mi
7:00 AM75 °FSunny.No wind89%29.92 "Hg10 mi
6:00 AM68 °FClear.No wind100%29.89 "Hg10 mi
Weather by CustomWeather, © 2014

See weather overview